| time (UTC) | temp F | wind direction | speed MPH | gust MPH | rain 1hr in | rain 24hr in | rain mn in | humidity % | barometer mb |
| 20260831154004 | 70 | 313 | 8.0 | 17.0 | 0.00 | 0.18 | 0.12 | 72 | 1016.2 |
| 20260831153004 | 71 | 303 | 7.0 | 17.0 | 0.00 | 0.18 | 0.12 | 71 | 1016.1 |
| 20260831152004 | 70 | 304 | 6.0 | 14.0 | 0.00 | 0.18 | 0.12 | 72 | 1015.9 |
| 20260831151004 | 69 | 305 | 6.0 | 14.0 | 0.00 | 0.18 | 0.12 | 73 | 1015.9 |
| 20260831150004 | 70 | 293 | 5.0 | 12.0 | 0.00 | 0.18 | 0.12 | 72 | 1015.8 |
| 20260831145004 | 70 | 267 | 3.0 | 10.0 | 0.00 | 0.18 | 0.12 | 72 | 1015.8 |
| 20260831143005 | 70 | 249 | 5.0 | 14.0 | 0.00 | 0.18 | 0.12 | 71 | 1015.7 |
| 20260831141004 | 74 | 298 | 5.0 | 12.0 | 0.00 | 0.18 | 0.12 | 64 | 1015.3 |
| 20260831135006 | 73 | 283 | 6.0 | 12.0 | 0.00 | 0.18 | 0.12 | 66 | 1015.1 |
| 20260831134007 | 72 | 264 | 3.0 | 12.0 | 0.00 | 0.18 | 0.12 | 71 | 1015.1 |
| 20260831133006 | 73 | 296 | 4.0 | 12.0 | 0.00 | 0.18 | 0.12 | 68 | 1014.9 |
| 20260831131006 | 74 | 283 | 6.0 | 15.0 | 0.00 | 0.18 | 0.12 | 66 | 1014.7 |
| 20260831130006 | 74 | 301 | 6.0 | 12.0 | 0.00 | 0.18 | 0.12 | 63 | 1014.5 |
| 20260831125006 | 74 | 294 | 8.0 | 14.0 | 0.00 | 0.18 | 0.12 | 61 | 1014.5 |
| 20260831124006 | 74 | 307 | 5.0 | 12.0 | 0.00 | 0.18 | 0.12 | 66 | 1014.4 |
| 20260831123006 | 74 | 328 | 5.0 | 18.0 | 0.00 | 0.18 | 0.12 | 61 | 1014.2 |
| 20260831122004 | 74 | 299 | 8.0 | 18.0 | 0.00 | 0.18 | 0.12 | 62 | 1014.0 |
| 20260831121006 | 74 | 300 | 8.0 | 14.0 | 0.00 | 0.18 | 0.12 | 63 | 1013.9 |
| 20260831114006 | 72 | 305 | 6.0 | 17.0 | 0.00 | 0.18 | 0.12 | 63 | 1013.7 |
| 20260831113005 | 73 | 285 | 9.0 | 15.0 | 0.00 | 0.18 | 0.12 | 65 | 1013.5 |
| 20260831112006 | 72 | 295 | 9.0 | 16.0 | 0.00 | 0.18 | 0.12 | 66 | 1013.3 |
| 20260831111006 | 71 | 300 | 9.0 | 15.0 | 0.00 | 0.18 | 0.12 | 68 | 1013.3 |
| 20260831110006 | 70 | 293 | 7.0 | 14.0 | 0.00 | 0.18 | 0.12 | 70 | 1013.1 |
| 20260831105006 | 70 | 302 | 6.0 | 17.0 | 0.00 | 0.18 | 0.12 | 71 | 1012.9 |
| 20260831104007 | 69 | 302 | 7.0 | 12.0 | 0.00 | 0.18 | 0.12 | 74 | 1012.9 |
| 20260831103006 | 68 | 306 | 6.0 | 12.0 | 0.00 | 0.18 | 0.12 | 74 | 1012.8 |
| 20260831102006 | 68 | 302 | 9.0 | 14.0 | 0.00 | 0.18 | 0.12 | 72 | 1012.7 |
| 20260831101006 | 68 | 318 | 7.0 | 12.0 | 0.00 | 0.18 | 0.12 | 75 | 1012.7 |
| 20260831100006 | 67 | 305 | 6.0 | 14.0 | 0.00 | 0.18 | 0.12 | 75 | 1012.5 |
| 20260831095006 | 67 | 310 | 7.0 | 15.0 | 0.00 | 0.18 | 0.12 | 75 | 1012.4 |
| 20260831094006 | 67 | 311 | 8.0 | 12.0 | 0.00 | 0.18 | 0.12 | 76 | 1012.2 |
| 20260831093006 | 67 | 302 | 6.0 | 17.0 | 0.00 | 0.18 | 0.12 | 78 | 1012.3 |
| 20260831092007 | 66 | 318 | 5.0 | 14.0 | 0.00 | 0.18 | 0.12 | 78 | 1012.1 |
| 20260831091006 | 65 | 302 | 4.0 | 20.0 | 0.00 | 0.18 | 0.12 | 79 | 1011.9 |
| 20260831090006 | 65 | 293 | 9.0 | 20.0 | 0.00 | 0.18 | 0.12 | 78 | 1011.7 |
| 20260831085006 | 66 | 296 | 8.0 | 15.0 | 0.00 | 0.18 | 0.12 | 78 | 1011.5 |
| 20260831084006 | 65 | 306 | 7.0 | 20.0 | 0.00 | 0.18 | 0.12 | 80 | 1011.5 |
| 20260831083005 | 64 | 303 | 6.0 | 18.0 | 0.00 | 0.18 | 0.12 | 81 | 1011.3 |
| 20260831082006 | 64 | 300 | 6.0 | 20.0 | 0.00 | 0.18 | 0.12 | 81 | 1011.3 |
| 20260831081005 | 64 | 298 | 8.0 | 20.0 | 0.00 | 0.18 | 0.12 | 82 | 1011.1 |
| 20260831080006 | 64 | 299 | 9.0 | 15.0 | 0.00 | 0.18 | 0.12 | 82 | 1011.0 |
| 20260831075005 | 63 | 302 | 7.0 | 15.0 | 0.00 | 0.18 | 0.12 | 81 | 1010.9 |
| 20260831074007 | 63 | 299 | 9.0 | 16.0 | 0.00 | 0.18 | 0.12 | 81 | 1010.6 |
| 20260831073006 | 63 | 310 | 6.0 | 15.0 | 0.00 | 0.18 | 0.12 | 83 | 1010.5 |
| 20260831072006 | 62 | 318 | 6.0 | 15.0 | 0.00 | 0.18 | 0.12 | 83 | 1010.4 |
| 20260831065006 | 61 | 309 | 5.0 | 12.0 | 0.00 | 0.18 | 0.12 | 83 | 1009.9 |
| 20260831064005 | 61 | 312 | 6.0 | 12.0 | 0.00 | 0.18 | 0.12 | 83 | 1009.8 |
| 20260831063006 | 61 | 301 | 6.0 | 12.0 | 0.00 | 0.18 | 0.12 | 84 | 1009.6 |
| 20260831062006 | 61 | 293 | 6.0 | 14.0 | 0.00 | 0.18 | 0.12 | 85 | 1009.4 |
| 20260831061005 | 60 | 300 | 5.0 | 14.0 | 0.00 | 0.18 | 0.12 | 85 | 1009.4 |
| 20260831055005 | 60 | 304 | 6.0 | 12.0 | 0.00 | 0.18 | 0.12 | 84 | 1008.9 |
| 20260831054005 | 60 | 299 | 6.0 | 12.0 | 0.00 | 0.18 | 0.12 | 84 | 1008.8 |
| 20260831053006 | 60 | 307 | 6.0 | 12.0 | 0.00 | 0.18 | 0.12 | 84 | 1008.6 |
| 20260831052005 | 60 | 292 | 6.0 | 12.0 | 0.00 | 0.18 | 0.12 | 84 | 1008.4 |
| 20260831051005 | 60 | 304 | 6.0 | 12.0 | 0.00 | 0.18 | 0.12 | 83 | 1008.3 |
| 20260831045005 | 60 | 312 | 6.0 | 12.0 | 0.00 | 0.18 | 0.12 | 84 | 1007.9 |
| 20260831044005 | 60 | 297 | 7.0 | 15.0 | 0.00 | 0.18 | 0.12 | 84 | 1007.8 |
| 20260831043005 | 60 | 300 | 6.0 | 12.0 | 0.00 | 0.18 | 0.12 | 85 | 1007.7 |
| 20260831040005 | 60 | 302 | 5.0 | 12.0 | 0.00 | 0.18 | 0.12 | 85 | 1007.6 |
| 20260831035005 | 60 | 301 | 8.0 | 15.0 | 0.00 | 0.18 | 0.12 | 85 | 1007.5 |
| 20260831034005 | 60 | 309 | 7.0 | 12.0 | 0.00 | 0.18 | 0.12 | 85 | 1007.4 |
| 20260831033005 | 60 | 299 | 6.0 | 12.0 | 0.00 | 0.18 | 0.12 | 85 | 1007.4 |
| 20260831032006 | 60 | 304 | 6.0 | 14.0 | 0.00 | 0.18 | 0.12 | 86 | 1007.3 |
| 20260831024005 | 60 | 306 | 6.0 | 12.0 | 0.00 | 0.18 | 0.12 | 86 | 1006.9 |
| 20260831023005 | 60 | 308 | 5.0 | 12.0 | 0.00 | 0.18 | 0.12 | 86 | 1006.9 |
| 20260831022005 | 60 | 307 | 7.0 | 12.0 | 0.00 | 0.18 | 0.12 | 87 | 1006.8 |
| 20260831020005 | 60 | 308 | 7.0 | 14.0 | 0.02 | 0.18 | 0.12 | 88 | 1006.7 |
| 20260831015005 | 60 | 309 | 7.0 | 15.0 | 0.02 | 0.18 | 0.12 | 89 | 1006.7 |
| 20260831014005 | 60 | 307 | 6.0 | 20.0 | 0.02 | 0.18 | 0.12 | 89 | 1006.6 |
| 20260831013005 | 60 | 312 | 5.0 | 12.0 | 0.02 | 0.18 | 0.12 | 89 | 1006.6 |
| 20260831012005 | 61 | 260 | 6.0 | 14.0 | 0.02 | 0.18 | 0.12 | 88 | 1006.6 |
| 20260831011007 | 61 | 284 | 6.0 | 21.0 | 0.02 | 0.18 | 0.12 | 88 | 1006.6 |
| 20260831010005 | 62 | 290 | 5.0 | 21.0 | 0.00 | 0.16 | 0.09 | 88 | 1006.6 |
| 20260831005005 | 62 | 330 | 5.0 | 15.0 | 0.00 | 0.16 | 0.09 | 87 | 1006.4 |
| 20260831004005 | 62 | 281 | 5.0 | 16.0 | 0.00 | 0.16 | 0.09 | 88 | 1006.5 |
| 20260831003005 | 62 | 258 | 6.0 | 21.0 | 0.00 | 0.16 | 0.09 | 88 | 1006.3 |
| 20260831002005 | 62 | 244 | 3.0 | 15.0 | 0.00 | 0.16 | 0.09 | 90 | 1006.3 |
| 20260831001005 | 62 | 302 | 5.0 | 14.0 | 0.01 | 0.16 | 0.09 | 91 | 1006.3 |
| 20260831000005 | 62 | 235 | 6.0 | 17.0 | 0.09 | 0.16 | 0.09 | 91 | 1006.3 |
| 20260830235004 | 62 | 194 | 5.0 | 16.0 | 0.03 | 0.16 | 0.09 | 92 | 1006.3 |
| 20260830234005 | 62 | 230 | 6.0 | 16.0 | 0.09 | 0.16 | 0.09 | 92 | 1006.2 |
| 20260830232005 | 62 | 207 | 6.0 | 16.0 | 0.09 | 0.16 | 0.09 | 92 | 1006.4 |
| 20260830231005 | 62 | 214 | 5.0 | 17.0 | 0.09 | 0.15 | 0.09 | 92 | 1006.5 |
| 20260830225005 | 63 | 211 | 6.0 | 17.0 | 0.06 | 0.06 | 0.06 | 88 | 1007.1 |
| 20260830224005 | 64 | 162 | 5.0 | 17.0 | 0.01 | 0.01 | 0.01 | 83 | 1007.1 |
| 20260830221006 | 64 | 171 | 6.0 | 15.0 | 0.00 | 0.00 | 0.00 | 83 | 1007.5 |
| 20260830220005 | 64 | 172 | 3.0 | 20.0 | 0.00 | 0.00 | 0.00 | 83 | 1007.5 |
| 20260830215004 | 64 | 224 | 5.0 | 17.0 | 0.00 | 0.00 | 0.00 | 83 | 1007.5 |
| 20260830214005 | 64 | 209 | 3.0 | 12.0 | 0.00 | 0.00 | 0.00 | 83 | 1007.6 |
| 20260830213005 | 64 | 201 | 4.0 | 16.0 | 0.00 | 0.00 | 0.00 | 83 | 1007.6 |
| 20260830212004 | 64 | 204 | 5.0 | 12.0 | 0.00 | 0.00 | 0.00 | 82 | 1007.7 |
| 20260830211004 | 64 | 168 | 6.0 | 20.0 | 0.00 | 0.00 | 0.00 | 83 | 1007.7 |
| 20260830210006 | 64 | 204 | 5.0 | 16.0 | 0.00 | 0.00 | 0.00 | 84 | 1007.8 |
| 20260830205007 | 64 | 220 | 5.0 | 16.0 | 0.00 | 0.00 | 0.00 | 84 | 1007.7 |
| 20260830204004 | 64 | 214 | 3.0 | 12.0 | 0.00 | 0.00 | 0.00 | 84 | 1007.7 |
| 20260830203004 | 64 | 225 | 3.0 | 14.0 | 0.00 | 0.00 | 0.00 | 84 | 1007.8 |
| 20260830202005 | 64 | 258 | 3.0 | 14.0 | 0.00 | 0.00 | 0.00 | 83 | 1007.8 |
| 20260830201004 | 64 | 184 | 6.0 | 15.0 | 0.00 | 0.00 | 0.00 | 82 | 1007.6 |
| 20260830200007 | 64 | 239 | 6.0 | 14.0 | 0.00 | 0.00 | 0.00 | 83 | 1007.7 |
| 20260830195005 | 64 | 226 | 3.0 | 12.0 | 0.00 | 0.00 | 0.00 | 82 | 1007.7 |
| 20260830194004 | 64 | 225 | 5.0 | 20.0 | 0.00 | 0.00 | 0.00 | 82 | 1007.7 |
| 20260830193004 | 65 | 202 | 7.0 | 20.0 | 0.00 | 0.00 | 0.00 | 81 | 1007.7 |
| 20260830192004 | 65 | 188 | 6.0 | 22.0 | 0.00 | 0.00 | 0.00 | 81 | 1007.8 |
| 20260830191004 | 66 | 206 | 7.0 | 26.0 | 0.00 | 0.00 | 0.00 | 80 | 1007.5 |
| 20260830190004 | 66 | 165 | 5.0 | 12.0 | 0.00 | 0.00 | 0.00 | 82 | 1007.4 |
| 20260830184007 | 66 | 185 | 3.0 | 10.0 | 0.00 | 0.00 | 0.00 | 80 | 1007.6 |
| 20260830183004 | 66 | 161 | 3.0 | 12.0 | 0.00 | 0.00 | 0.00 | 80 | 1007.7 |
| 20260830182004 | 66 | 189 | 2.0 | 12.0 | 0.00 | 0.00 | 0.00 | 80 | 1007.6 |
| 20260830181004 | 66 | 196 | 4.0 | 14.0 | 0.00 | 0.00 | 0.00 | 79 | 1007.8 |
| 20260830180004 | 66 | 202 | 4.0 | 14.0 | 0.00 | 0.00 | 0.00 | 79 | 1008.1 |
| 20260830175006 | 66 | 194 | 2.0 | 10.0 | 0.00 | 0.00 | 0.00 | 79 | 1008.2 |
| 20260830174004 | 66 | 190 | 3.0 | 9.0 | 0.00 | 0.00 | 0.00 | 79 | 1008.2 |
| 20260830173004 | 66 | 193 | 1.0 | 8.0 | 0.00 | 0.00 | 0.00 | 80 | 1008.3 |
| 20260830172004 | 66 | 211 | 3.0 | 8.0 | 0.00 | 0.00 | 0.00 | 79 | 1008.7 |
| 20260830171004 | 66 | 194 | 2.0 | 10.0 | 0.00 | 0.00 | 0.00 | 80 | 1008.7 |
| 20260830170004 | 67 | 196 | 5.0 | 12.0 | 0.00 | 0.00 | 0.00 | 81 | 1008.8 |
| 20260830165004 | 67 | 164 | 2.0 | 12.0 | 0.00 | 0.00 | 0.00 | 80 | 1008.7 |
| 20260830164004 | 67 | 183 | 3.0 | 12.0 | 0.00 | 0.00 | 0.00 | 79 | 1008.7 |
| 20260830163007 | 67 | 195 | 4.0 | 12.0 | 0.00 | 0.00 | 0.00 | 78 | 1008.8 |
| 20260830162004 | 67 | 199 | 3.0 | 12.0 | 0.00 | 0.00 | 0.00 | 78 | 1008.9 |
| 20260830161004 | 68 | 175 | 4.0 | 12.0 | 0.00 | 0.00 | 0.00 | 76 | 1009.0 |
| 20260830160004 | 68 | 143 | 5.0 | 15.0 | 0.00 | 0.00 | 0.00 | 74 | 1009.2 |
| 20260830155004 | 69 | 231 | 5.0 | 14.0 | 0.00 | 0.00 | 0.00 | 74 | 1009.2 |